User: anonymous
Location: Caltech
(34.1382°N, 118.1253°W)
Time: 09:11:21
(UTC-07:00)
Language:

RS-15 - Orbit

View from above orbital plane
View from above orbital plane
View from above satellite
View from above satellite

Ground track
Ground track

The orbit data is extracted from the following two-line orbital elements,

1 23439U 94085A   14237.93380538 -.00000039  00000-0  10000-3 0  7022
2 23439 064.8180 078.9442 0146268 068.9280 292.7213 11.27561797809867
Epoch (UTC): 25 August 2014 22:24:40
Eccentricity: 0.0146268
inclination: 64.8180°
perigee height: 1899 km
apogee height: 2145 km
right ascension of ascending node: 78.9442°
argument of perigee: 68.9280°
revolutions per day: 11.27561797
mean anomaly at epoch: 292.7213°
orbit number at epoch: 80986

The dashed part of the orbit path shows where the satellite is in the earth's shadow,  

DLR